User: anonymous   Login
Location: *
(35.8942°N, 23.3025°E)
Time: 20:29:48
(UTC+00:00)
Language:

DIWATA 2B (PO-101) - Orbit

View from above orbital plane
View from above orbital plane
View from above satellite
View from above satellite

Ground track
Ground track

The orbit data is extracted from the following two-line orbital elements,

1 43678U 18084H   24114.46389907  .00004535  00000-0  42032-3 0  9998
2 43678  98.0652 270.8831 0008508 204.0444 156.0380 14.94972450298746
Epoch (UTC): 23 April 2024 11:08:00
Eccentricity: 0.0008508
inclination: 98.0652°
perigee height: 576 km
apogee height: 588 km
right ascension of ascending node: 270.8831°
argument of perigee: 204.0444°
revolutions per day: 14.94972450
mean anomaly at epoch: 156.0380°
orbit number at epoch: 29874

The dashed part of the orbit path shows where the satellite is in the earth's shadow,  

DLR